Torna al catalogo

COSMOS 2251 DEB

AttivoLEO
NORAD 36558·DEBRIS·🇷🇺 Russia

Lanciato Jun 16, 1993 da Plesetsk Cosmodrome

Loading…

Prossimi Passaggi (prossime 24 ore)

TLE

In scadenzaSource: Space-Track

Epoca: Sep 11, 2026, 16:58 UTC

1 36558U 93036BDU 26254.70729863  .00001609  00000-0  36430-3 0  9994
2 36558  74.0437 356.9500 0012884  10.7071 349.4365 14.56950995892423

Traccia COSMOS 2251 DEB in tempo reale con AllMySat

Download on the App Store